Time,TemperatureF,DewpointF,PressureIn,WindDirection,WindDirectionDegrees,WindSpeedMPH,WindSpeedGustMPH,Humidity,HourlyPrecipIn,Conditions,Clouds,dailyrainin,SolarRadiationWatts/m^2,SoftwareType,DateUTC
2013-09-08 00:02:00,57.7,55.1,29.85,West,260,7.5,11.5,91,0.00,OVC,,0.00,0.0,WeatherDisplay:10.37,2013-09-08 07:02:00,
2013-09-08 00:07:00,57.7,55.1,29.85,SW,232,7.3,11.5,91,0.00,OVC,,0.00,0.0,WeatherDisplay:10.37,2013-09-08 07:07:00,
2013-09-08 00:12:00,57.8,55.5,29.85,West,263,8.8,12.7,92,0.00,OVC,,0.00,0.0,WeatherDisplay:10.37,2013-09-08 07:12:00,
2013-09-08 00:17:00,57.8,55.5,29.84,West,260,4.0,6.9,92,0.00,OVC,,0.00,0.0,WeatherDisplay:10.37,2013-09-08 07:17:00,
2013-09-08 00:22:00,57.9,55.6,29.84,SW,224,3.5,5.8,92,0.00,OVC,,0.00,0.0,WeatherDisplay:10.37,2013-09-08 07:22:00,
2013-09-08 00:27:00,57.8,55.5,29.84,WSW,246,3.1,5.8,92,0.00,OVC,,0.00,0.0,WeatherDisplay:10.37,2013-09-08 07:27:00,
2013-09-08 00:32:00,57.8,55.5,29.84,West,264,3.0,3.5,92,0.00,OVC,,0.00,0.0,WeatherDisplay:10.37,2013-09-08 07:32:00,
2013-09-08 00:37:00,57.9,55.9,29.84,WSW,240,2.9,6.9,93,0.00,OVC,,0.00,0.0,WeatherDisplay:10.37,2013-09-08 07:37:00,
2013-09-08 00:42:00,57.9,55.9,29.84,WSW,243,4.6,6.9,93,0.00,OVC,,0.00,0.0,WeatherDisplay:10.37,2013-09-08 07:42:00,
2013-09-08 00:47:00,58.0,56.0,29.84,SW,232,9.5,15.0,93,0.00,OVC,,0.00,0.0,WeatherDisplay:10.37,2013-09-08 07:47:00,
2013-09-08 00:52:00,58.0,56.0,29.84,WSW,254,5.1,11.5,93,0.00,OVC,,0.00,0.0,WeatherDisplay:10.37,2013-09-08 07:52:00,
2013-09-08 00:57:00,57.9,55.9,29.84,WSW,258,5.2,9.2,93,0.00,OVC,,0.00,0.0,WeatherDisplay:10.37,2013-09-08 07:57:00,
2013-09-08 01:02:00,58.0,56.0,29.84,WSW,242,4.5,6.9,93,0.00,OVC,,0.00,0.0,WeatherDisplay:10.37,2013-09-08 08:02:00,
2013-09-08 01:07:00,58.0,56.0,29.84,WSW,239,11.0,13.0,93,0.00,OVC,,0.00,0.0,WeatherDisplay:10.37,2013-09-08 08:07:00,
2013-09-08 01:12:00,57.9,55.9,29.84,WSW,250,9.1,12.7,93,0.00,OVC,,0.00,0.0,WeatherDisplay:10.37,2013-09-08 08:12:00,
2013-09-08 01:17:00,57.8,55.8,29.84,West,281,4.4,10.4,93,0.00,OVC,,0.00,0.0,WeatherDisplay:10.37,2013-09-08 08:17:00,
2013-09-08 01:22:00,57.8,55.8,29.84,WSW,254,3.1,9.2,93,0.00,OVC,,0.00,0.0,WeatherDisplay:10.37,2013-09-08 08:22:00,
2013-09-08 01:27:00,57.8,55.8,29.84,SW,215,8.9,15.0,93,0.00,OVC,,0.00,0.0,WeatherDisplay:10.37,2013-09-08 08:27:00,
2013-09-08 01:32:00,57.7,55.7,29.84,WNW,296,6.6,11.5,93,0.00,OVC,,0.00,0.0,WeatherDisplay:10.37,2013-09-08 08:32:00,
2013-09-08 01:37:00,57.7,55.7,29.84,WSW,246,8.6,11.0,93,0.00,OVC,,0.00,0.0,WeatherDisplay:10.37,2013-09-08 08:37:00,
2013-09-08 01:42:00,57.6,55.6,29.84,WSW,253,4.6,10.4,93,0.00,OVC,,0.00,0.0,WeatherDisplay:10.37,2013-09-08 08:42:00,
2013-09-08 01:47:00,57.5,55.5,29.84,WNW,286,8.9,11.5,93,0.00,OVC,,0.00,0.0,WeatherDisplay:10.37,2013-09-08 08:47:00,
2013-09-08 01:52:00,57.3,55.3,29.84,SW,220,8.2,17.0,93,0.00,OVC,,0.00,0.0,WeatherDisplay:10.37,2013-09-08 08:52:00,
2013-09-08 01:57:00,57.2,55.2,29.84,WSW,240,9.5,16.1,93,0.00,OVC,,0.00,0.0,WeatherDisplay:10.37,2013-09-08 08:57:00,
2013-09-08 02:02:00,57.1,55.1,29.84,WNW,291,4.0,9.2,93,0.00,OVC,,0.00,0.0,WeatherDisplay:10.37,2013-09-08 09:02:00,
2013-09-08 02:07:00,57.0,55.0,29.84,SW,235,5.7,12.7,93,0.00,OVC,,0.00,0.0,WeatherDisplay:10.37,2013-09-08 09:07:00,
2013-09-08 02:12:00,57.0,55.0,29.84,West,262,3.4,12.7,93,0.00,OVC,,0.00,0.0,WeatherDisplay:10.37,2013-09-08 09:12:00,
2013-09-08 02:17:00,56.9,55.2,29.84,SW,235,8.0,11.5,94,0.00,OVC,,0.00,0.0,WeatherDisplay:10.37,2013-09-08 09:17:00,
2013-09-08 02:22:00,56.9,55.2,29.84,SW,221,9.0,12.0,94,0.00,OVC,,0.00,0.0,WeatherDisplay:10.37,2013-09-08 09:22:00,
2013-09-08 02:27:00,57.0,55.3,29.85,SSW,211,5.3,9.2,94,0.00,OVC,,0.00,0.0,WeatherDisplay:10.37,2013-09-08 09:27:00,
2013-09-08 02:32:00,57.0,55.3,29.85,WSW,243,0.1,4.6,94,0.00,OVC,,0.00,0.0,WeatherDisplay:10.37,2013-09-08 09:32:00,
2013-09-08 02:37:00,57.1,55.4,29.84,SW,235,1.7,3.5,94,0.00,OVC,,0.00,0.0,WeatherDisplay:10.37,2013-09-08 09:37:00,
2013-09-08 02:42:00,57.2,55.5,29.84,SW,231,4.1,6.9,94,0.00,OVC,,0.00,0.0,WeatherDisplay:10.37,2013-09-08 09:42:00,
2013-09-08 02:47:00,57.2,55.5,29.84,WSW,258,3.5,4.0,94,0.00,OVC,,0.00,0.0,WeatherDisplay:10.37,2013-09-08 09:47:00,
2013-09-08 02:52:00,57.3,55.6,29.84,WSW,250,1.8,4.0,94,0.00,OVC,,0.00,0.0,WeatherDisplay:10.37,2013-09-08 09:52:00,
2013-09-08 02:57:00,57.4,55.7,29.84,SW,236,1.0,3.5,94,0.00,OVC,,0.00,0.0,WeatherDisplay:10.37,2013-09-08 09:57:00,
2013-09-08 03:02:00,57.4,55.7,29.84,West,260,4.1,8.1,94,0.00,OVC,,0.00,0.0,WeatherDisplay:10.37,2013-09-08 10:02:00,
2013-09-08 03:07:00,57.5,55.8,29.84,WSW,248,6.2,9.2,94,0.00,OVC,,0.00,0.0,WeatherDisplay:10.37,2013-09-08 10:07:00,
2013-09-08 03:12:00,57.5,55.8,29.84,WSW,243,9.8,10.4,94,0.00,OVC,,0.00,0.0,WeatherDisplay:10.37,2013-09-08 10:12:00,
2013-09-08 03:18:00,57.5,55.8,29.84,SW,235,7.1,11.0,94,0.00,OVC,,0.00,0.0,WeatherDisplay:10.37,2013-09-08 10:18:00,
2013-09-08 03:23:00,57.4,55.7,29.84,West,273,6.2,10.0,94,0.00,OVC,,0.00,0.0,WeatherDisplay:10.37,2013-09-08 10:23:00,
2013-09-08 03:28:00,57.4,55.7,29.84,WSW,254,4.5,5.8,94,0.00,OVC,,0.00,0.0,WeatherDisplay:10.37,2013-09-08 10:28:00,
2013-09-08 03:33:00,57.4,56.0,29.84,West,262,3.1,5.8,95,0.00,,,0.00,0.0,WeatherDisplay:10.37,2013-09-08 10:33:00,
2013-09-08 03:38:00,57.4,56.0,29.84,SW,235,1.6,4.0,95,0.00,,,0.00,0.0,WeatherDisplay:10.37,2013-09-08 10:38:00,
2013-09-08 03:43:00,57.4,56.0,29.84,WSW,239,1.7,3.5,95,0.00,,,0.00,0.0,WeatherDisplay:10.37,2013-09-08 10:43:00,
2013-09-08 03:48:00,57.5,56.1,29.84,WSW,240,0.0,0.0,95,0.00,,,0.00,0.0,WeatherDisplay:10.37,2013-09-08 10:48:00,
2013-09-08 03:53:00,57.5,56.1,29.84,WSW,242,2.5,4.6,95,0.00,,,0.00,0.0,WeatherDisplay:10.37,2013-09-08 10:53:00,
2013-09-08 03:58:00,57.5,56.1,29.83,WSW,242,0.1,1.2,95,0.00,,,0.00,0.0,WeatherDisplay:10.37,2013-09-08 10:58:00,
2013-09-08 04:03:00,57.5,56.1,29.84,WSW,242,1.8,3.5,95,0.00,,,0.00,0.0,WeatherDisplay:10.37,2013-09-08 11:03:00,
2013-09-08 04:08:00,57.5,56.1,29.84,WSW,242,0.6,2.3,95,0.00,,,0.00,0.0,WeatherDisplay:10.37,2013-09-08 11:08:00,
2013-09-08 04:13:00,57.5,55.8,29.84,WSW,242,0.8,2.3,94,0.00,,,0.00,0.0,WeatherDisplay:10.37,2013-09-08 11:13:00,
2013-09-08 04:18:00,57.4,55.7,29.84,WSW,242,2.0,3.5,94,0.00,,,0.00,0.0,WeatherDisplay:10.37,2013-09-08 11:18:00,
2013-09-08 04:23:00,57.3,55.6,29.84,WSW,242,2.2,3.5,94,0.00,,,0.00,0.0,WeatherDisplay:10.37,2013-09-08 11:23:00,
2013-09-08 04:28:00,57.2,55.5,29.84,SW,233,3.1,4.6,94,0.00,,,0.00,0.0,WeatherDisplay:10.37,2013-09-08 11:28:00,
2013-09-08 04:33:00,57.2,55.5,29.84,SW,232,2.0,3.5,94,0.00,,,0.00,0.0,WeatherDisplay:10.37,2013-09-08 11:33:00,
2013-09-08 04:38:00,57.1,55.7,29.84,SW,232,3.8,4.6,95,0.00,,,0.00,0.0,WeatherDisplay:10.37,2013-09-08 11:38:00,
2013-09-08 04:43:00,57.1,55.4,29.84,SW,231,3.5,6.0,94,0.00,,,0.00,0.0,WeatherDisplay:10.37,2013-09-08 11:43:00,
2013-09-08 04:48:00,57.0,55.3,29.84,SW,230,2.4,3.5,94,0.00,,,0.00,0.0,WeatherDisplay:10.37,2013-09-08 11:48:00,
2013-09-08 04:53:00,57.0,55.3,29.83,SW,229,0.7,2.3,94,0.00,,,0.00,0.0,WeatherDisplay:10.37,2013-09-08 11:53:00,
2013-09-08 04:58:00,56.9,55.2,29.84,SW,230,0.6,2.3,94,0.00,,,0.00,0.0,WeatherDisplay:10.37,2013-09-08 11:58:00,
2013-09-08 05:03:00,56.9,55.2,29.83,SW,229,1.2,3.5,94,0.00,,,0.00,0.0,WeatherDisplay:10.37,2013-09-08 12:03:00,
2013-09-08 05:08:00,56.9,55.2,29.84,SW,230,2.7,4.6,94,0.00,,,0.00,0.0,WeatherDisplay:10.37,2013-09-08 12:08:00,
2013-09-08 05:13:00,57.0,55.3,29.84,SW,231,2.2,3.5,94,0.00,,,0.00,0.0,WeatherDisplay:10.37,2013-09-08 12:13:00,
2013-09-08 05:18:00,57.0,55.3,29.84,SW,231,2.5,3.5,94,0.00,,,0.00,0.0,WeatherDisplay:10.37,2013-09-08 12:18:00,
2013-09-08 05:23:00,57.1,55.4,29.84,SW,231,1.4,2.3,94,0.00,,,0.00,0.0,WeatherDisplay:10.37,2013-09-08 12:23:00,
2013-09-08 05:28:00,57.1,55.4,29.84,SW,231,0.0,0.0,94,0.00,,,0.00,0.0,WeatherDisplay:10.37,2013-09-08 12:28:00,
2013-09-08 05:33:00,57.1,55.4,29.83,SW,231,0.0,0.0,94,0.00,,,0.00,0.0,WeatherDisplay:10.37,2013-09-08 12:33:00,
2013-09-08 05:38:00,57.0,55.3,29.83,SW,231,0.5,2.3,94,0.00,,,0.00,0.0,WeatherDisplay:10.37,2013-09-08 12:38:00,
2013-09-08 05:43:00,56.9,55.2,29.84,SW,231,3.2,4.0,94,0.00,,,0.00,0.0,WeatherDisplay:10.37,2013-09-08 12:43:00,
2013-09-08 05:48:00,56.9,55.2,29.84,SW,231,1.7,3.5,94,0.00,,,0.00,0.0,WeatherDisplay:10.37,2013-09-08 12:48:00,
2013-09-08 05:53:00,56.9,55.2,29.84,SW,231,2.4,3.5,94,0.00,,,0.00,0.0,WeatherDisplay:10.37,2013-09-08 12:53:00,
2013-09-08 05:58:00,56.8,55.1,29.84,SW,231,1.5,4.0,94,0.00,,,0.00,0.0,WeatherDisplay:10.37,2013-09-08 12:58:00,
2013-09-08 06:03:00,56.8,55.1,29.84,SW,231,0.3,1.2,94,0.00,,,0.00,0.0,WeatherDisplay:10.37,2013-09-08 13:03:00,
2013-09-08 06:08:00,56.8,55.1,29.84,SW,231,2.1,3.5,94,0.00,,,0.00,0.0,WeatherDisplay:10.37,2013-09-08 13:08:00,
2013-09-08 06:13:00,56.8,55.1,29.84,SW,219,1.8,4.6,94,0.00,,,0.00,0.0,WeatherDisplay:10.37,2013-09-08 13:13:00,
2013-09-08 06:18:00,56.8,55.1,29.84,SW,219,3.4,4.6,94,0.00,OVC,,0.00,0.0,WeatherDisplay:10.37,2013-09-08 13:18:00,
2013-09-08 06:23:00,56.7,55.0,29.84,SW,220,0.9,2.3,94,0.00,OVC,,0.00,0.0,WeatherDisplay:10.37,2013-09-08 13:23:00,
2013-09-08 06:28:00,56.7,55.0,29.84,SW,220,2.0,3.5,94,0.00,OVC,,0.00,0.0,WeatherDisplay:10.37,2013-09-08 13:28:00,
2013-09-08 06:33:00,56.6,54.9,29.84,SW,221,0.7,3.5,94,0.00,OVC,,0.00,0.0,WeatherDisplay:10.37,2013-09-08 13:33:00,
2013-09-08 06:38:00,56.6,54.9,29.85,SW,220,1.4,3.5,94,0.00,OVC,,0.00,0.0,WeatherDisplay:10.37,2013-09-08 13:38:00,
2013-09-08 06:43:00,56.6,54.9,29.84,SW,220,1.1,2.3,94,0.00,OVC,,0.00,0.0,WeatherDisplay:10.37,2013-09-08 13:43:00,
2013-09-08 06:48:00,56.6,54.9,29.85,SW,221,3.3,3.5,94,0.00,OVC,,0.00,5.0,WeatherDisplay:10.37,2013-09-08 13:48:00,
2013-09-08 06:53:00,56.6,54.9,29.85,SW,221,1.6,3.5,94,0.00,OVC,,0.00,9.0,WeatherDisplay:10.37,2013-09-08 13:53:00,
2013-09-08 06:58:00,56.6,54.9,29.85,WSW,252,4.4,6.9,94,0.00,OVC,,0.00,12.0,WeatherDisplay:10.37,2013-09-08 13:58:00,
2013-09-08 07:03:00,56.6,54.9,29.85,SW,236,3.8,4.6,94,0.00,OVC,,0.00,14.0,WeatherDisplay:10.37,2013-09-08 14:03:00,
2013-09-08 07:08:00,56.6,54.9,29.85,WSW,245,2.6,4.0,94,0.00,OVC,,0.00,44.0,WeatherDisplay:10.37,2013-09-08 14:08:00,
2013-09-08 07:13:00,56.6,54.9,29.85,WSW,250,6.6,9.0,94,0.00,OVC,,0.00,51.0,WeatherDisplay:10.37,2013-09-08 14:13:00,
2013-09-08 07:18:00,56.7,55.0,29.85,SW,233,4.0,7.0,94,0.00,OVC,,0.00,30.0,WeatherDisplay:10.37,2013-09-08 14:18:00,
2013-09-08 07:23:00,56.8,55.1,29.85,West,269,1.7,8.1,94,0.00,OVC,,0.00,32.0,WeatherDisplay:10.37,2013-09-08 14:23:00,
2013-09-08 07:28:00,56.8,55.4,29.85,WSW,253,3.6,4.6,95,0.00,,,0.00,33.0,WeatherDisplay:10.37,2013-09-08 14:28:00,
2013-09-08 07:33:00,56.9,55.5,29.85,WSW,254,3.3,4.6,95,0.00,,,0.00,33.0,WeatherDisplay:10.37,2013-09-08 14:33:00,
2013-09-08 07:38:00,57.1,55.7,29.85,West,266,3.6,5.8,95,0.00,,,0.00,39.0,WeatherDisplay:10.37,2013-09-08 14:38:00,
2013-09-08 07:43:00,57.2,55.8,29.85,SW,221,6.8,11.5,95,0.00,,,0.00,46.0,WeatherDisplay:10.37,2013-09-08 14:43:00,
2013-09-08 07:48:00,57.3,55.9,29.85,West,262,4.3,5.8,95,0.00,,,0.00,67.0,WeatherDisplay:10.37,2013-09-08 14:48:00,
2013-09-08 07:53:00,57.3,55.9,29.86,WSW,247,2.2,6.0,95,0.00,,,0.00,79.0,WeatherDisplay:10.37,2013-09-08 14:53:00,
2013-09-08 07:58:00,57.5,56.1,29.86,WSW,250,3.8,7.0,95,0.00,,,0.00,81.0,WeatherDisplay:10.37,2013-09-08 14:58:00,
2013-09-08 08:03:00,57.6,56.2,29.85,SW,233,2.5,3.5,95,0.00,OVC,,0.00,83.0,WeatherDisplay:10.37,2013-09-08 15:03:00,
2013-09-08 08:08:00,57.7,56.3,29.85,WSW,252,0.8,3.5,95,0.00,OVC,,0.00,116.0,WeatherDisplay:10.37,2013-09-08 15:08:00,
2013-09-08 08:13:00,57.8,56.4,29.85,West,275,2.6,5.0,95,0.00,BKN,,0.00,84.0,WeatherDisplay:10.37,2013-09-08 15:13:00,
2013-09-08 08:18:00,58.0,56.6,29.86,WSW,256,2.4,3.5,95,0.00,BKN,,0.00,120.0,WeatherDisplay:10.37,2013-09-08 15:18:00,
2013-09-08 08:23:00,58.0,56.6,29.86,West,281,4.5,5.8,95,0.00,BKN,,0.00,137.0,WeatherDisplay:10.37,2013-09-08 15:23:00,
2013-09-08 08:28:00,58.0,56.6,29.86,SW,222,5.0,9.0,95,0.00,BKN,,0.00,172.0,WeatherDisplay:10.37,2013-09-08 15:28:00,
2013-09-08 08:33:00,58.2,56.8,29.85,SW,236,2.6,5.8,95,0.00,BKN,,0.00,186.0,WeatherDisplay:10.37,2013-09-08 15:33:00,
2013-09-08 08:38:00,58.4,57.0,29.86,West,262,0.9,2.3,95,0.00,BKN,,0.00,186.0,WeatherDisplay:10.37,2013-09-08 15:38:00,
2013-09-08 08:43:00,58.6,57.2,29.85,WSW,249,2.4,4.6,95,0.00,BKN,,0.00,163.0,WeatherDisplay:10.37,2013-09-08 15:43:00,
2013-09-08 08:48:00,58.6,57.2,29.85,WSW,239,4.4,6.9,95,0.00,BKN,,0.00,213.0,WeatherDisplay:10.37,2013-09-08 15:48:00,
2013-09-08 08:53:00,58.8,57.4,29.86,SW,224,2.4,6.0,95,0.00,BKN,,0.00,394.0,WeatherDisplay:10.37,2013-09-08 15:53:00,
2013-09-08 08:58:00,59.3,58.2,29.85,SW,224,1.6,3.5,96,0.00,SCT,,0.00,399.0,WeatherDisplay:10.37,2013-09-08 15:58:00,
2013-09-08 09:04:00,59.7,58.3,29.85,SSW,213,4.1,5.8,95,0.00,SCT,,0.00,411.0,WeatherDisplay:10.37,2013-09-08 16:04:00,
2013-09-08 09:09:00,59.9,58.5,29.85,WSW,258,2.9,4.0,95,0.00,SCT,,0.00,427.0,WeatherDisplay:10.37,2013-09-08 16:09:00,
2013-09-08 09:14:00,60.1,58.4,29.85,West,274,3.1,3.5,94,0.00,SCT,,0.00,441.0,WeatherDisplay:10.37,2013-09-08 16:14:00,
2013-09-08 09:19:00,60.4,58.4,29.85,SW,233,0.9,4.0,93,0.00,FEW,,0.00,457.0,WeatherDisplay:10.37,2013-09-08 16:19:00,
2013-09-08 09:24:00,61.1,59.1,29.85,SSW,192,4.1,6.9,93,0.00,FEW,,0.00,473.0,WeatherDisplay:10.37,2013-09-08 16:24:00,
2013-09-08 09:29:00,61.7,59.0,29.85,SSW,195,2.8,4.0,91,0.00,FEW,,0.00,487.0,WeatherDisplay:10.37,2013-09-08 16:29:00,
2013-09-08 09:34:00,62.1,59.1,29.85,SSW,202,5.5,9.2,90,0.00,CLR,,0.00,499.0,WeatherDisplay:10.37,2013-09-08 16:34:00,
2013-09-08 09:39:00,62.5,59.2,29.85,SSW,195,3.0,6.0,89,0.00,CLR,,0.00,513.0,WeatherDisplay:10.37,2013-09-08 16:39:00,
2013-09-08 09:44:00,63.0,59.4,29.85,South,184,2.3,3.5,88,0.00,CLR,,0.00,527.0,WeatherDisplay:10.37,2013-09-08 16:44:00,
2013-09-08 09:49:00,63.8,59.9,29.86,SSW,202,1.6,3.5,87,0.00,CLR,,0.00,536.0,WeatherDisplay:10.37,2013-09-08 16:49:00,
2013-09-08 09:54:00,64.7,60.1,29.86,SSW,202,1.3,3.5,85,0.00,CLR,,0.00,554.0,WeatherDisplay:10.37,2013-09-08 16:54:00,
2013-09-08 09:59:00,65.5,60.2,29.86,SSW,202,0.2,2.0,83,0.00,CLR,,0.00,566.0,WeatherDisplay:10.37,2013-09-08 16:59:00,
2013-09-08 10:04:00,66.1,59.7,29.85,SSW,202,0.2,1.2,80,0.00,CLR,,0.00,575.0,WeatherDisplay:10.37,2013-09-08 17:04:00,
2013-09-08 10:09:00,66.9,59.8,29.85,SSW,202,1.1,2.3,78,0.00,CLR,,0.00,587.0,WeatherDisplay:10.37,2013-09-08 17:09:00,
2013-09-08 10:14:00,67.0,59.5,29.85,SSW,202,1.1,3.5,77,0.00,CLR,,0.00,603.0,WeatherDisplay:10.37,2013-09-08 17:14:00,
2013-09-08 10:19:00,67.6,60.1,29.85,SSW,202,0.0,0.0,77,0.00,CLR,,0.00,613.0,WeatherDisplay:10.37,2013-09-08 17:19:00,
2013-09-08 10:24:00,68.2,60.0,29.85,SSW,201,0.4,1.2,75,0.00,CLR,,0.00,626.0,WeatherDisplay:10.37,2013-09-08 17:24:00,
2013-09-08 10:29:00,68.5,59.9,29.85,SSW,202,0.2,3.5,74,0.00,CLR,,0.00,636.0,WeatherDisplay:10.37,2013-09-08 17:29:00,
2013-09-08 10:34:00,68.6,60.0,29.85,SSW,201,0.0,0.0,74,0.00,CLR,,0.00,649.0,WeatherDisplay:10.37,2013-09-08 17:34:00,
2013-09-08 10:39:00,69.0,60.0,29.85,SSW,202,1.2,3.5,73,0.00,CLR,,0.00,659.0,WeatherDisplay:10.37,2013-09-08 17:39:00,
2013-09-08 10:44:00,68.9,59.9,29.85,SSW,208,0.1,1.2,73,0.00,CLR,,0.00,666.0,WeatherDisplay:10.37,2013-09-08 17:44:00,
2013-09-08 10:49:00,69.4,60.4,29.85,SW,216,0.0,2.3,73,0.00,CLR,,0.00,679.0,WeatherDisplay:10.37,2013-09-08 17:49:00,
2013-09-08 10:54:00,70.1,60.7,29.85,SW,217,2.3,2.3,72,0.00,CLR,,0.00,687.0,WeatherDisplay:10.37,2013-09-08 17:54:00,
2013-09-08 10:59:00,71.2,60.9,29.85,SSW,195,0.0,2.3,70,0.00,CLR,,0.00,691.0,WeatherDisplay:10.37,2013-09-08 17:59:00,
2013-09-08 11:04:00,72.1,61.0,29.85,SSW,195,0.8,3.5,68,0.00,CLR,,0.00,701.0,WeatherDisplay:10.37,2013-09-08 18:04:00,
2013-09-08 11:09:00,72.9,60.9,29.84,SSW,196,0.7,2.3,66,0.00,CLR,,0.00,714.0,WeatherDisplay:10.37,2013-09-08 18:09:00,
2013-09-08 11:14:00,73.2,60.7,29.84,SSW,196,1.2,3.5,65,0.00,CLR,,0.00,721.0,WeatherDisplay:10.37,2013-09-08 18:14:00,
2013-09-08 11:19:00,73.7,61.2,29.84,SW,220,2.4,5.8,65,0.00,CLR,,0.00,726.0,WeatherDisplay:10.37,2013-09-08 18:19:00,
2013-09-08 11:24:00,73.9,61.0,29.84,SSW,206,4.8,6.9,64,0.00,CLR,,0.00,735.0,WeatherDisplay:10.37,2013-09-08 18:24:00,
2013-09-08 11:29:00,73.9,61.0,29.84,SW,214,6.8,11.5,64,0.00,CLR,,0.00,738.0,WeatherDisplay:10.37,2013-09-08 18:29:00,
2013-09-08 11:34:00,73.8,61.3,29.84,SSW,208,6.2,7.0,65,0.00,CLR,,0.00,591.0,WeatherDisplay:10.37,2013-09-08 18:34:00,
2013-09-08 11:39:00,73.6,60.7,29.84,SW,217,4.1,9.2,64,0.00,CLR,,0.00,598.0,WeatherDisplay:10.37,2013-09-08 18:39:00,
2013-09-08 11:44:00,73.1,60.6,29.84,SSW,195,8.3,11.5,65,0.00,CLR,,0.00,758.0,WeatherDisplay:10.37,2013-09-08 18:44:00,
2013-09-08 11:49:00,72.6,60.2,29.84,SW,232,6.6,10.4,65,0.00,CLR,,0.00,763.0,WeatherDisplay:10.37,2013-09-08 18:49:00,
2013-09-08 11:54:00,72.6,60.6,29.84,SSW,192,5.8,8.1,66,0.00,CLR,,0.00,768.0,WeatherDisplay:10.37,2013-09-08 18:54:00,
2013-09-08 11:59:00,72.6,60.6,29.84,SSW,200,4.5,6.9,66,0.00,CLR,,0.00,773.0,WeatherDisplay:10.37,2013-09-08 18:59:00,
2013-09-08 12:04:00,72.8,60.8,29.83,SW,223,6.0,10.4,66,0.00,CLR,,0.00,779.0,WeatherDisplay:10.37,2013-09-08 19:04:00,
2013-09-08 12:09:00,72.9,60.4,29.84,SSW,205,6.4,9.2,65,0.00,CLR,,0.00,782.0,WeatherDisplay:10.37,2013-09-08 19:09:00,
2013-09-08 12:14:00,72.9,60.4,29.84,South,186,7.0,11.5,65,0.00,CLR,,0.00,788.0,WeatherDisplay:10.37,2013-09-08 19:14:00,
2013-09-08 12:19:00,72.8,60.3,29.83,West,272,4.2,5.8,65,0.00,CLR,,0.00,789.0,WeatherDisplay:10.37,2013-09-08 19:19:00,
2013-09-08 12:24:00,73.0,59.7,29.83,SW,232,4.7,10.4,63,0.00,CLR,,0.00,791.0,WeatherDisplay:10.37,2013-09-08 19:24:00,
2013-09-08 12:29:00,73.3,59.5,29.83,SW,225,7.4,11.5,62,0.00,CLR,,0.00,777.0,WeatherDisplay:10.37,2013-09-08 19:29:00,
2013-09-08 12:34:00,73.5,59.2,29.83,SSE,168,8.7,12.7,61,0.00,SCT,,0.00,795.0,WeatherDisplay:10.37,2013-09-08 19:34:00,
2013-09-08 12:39:00,73.0,59.7,29.83,South,181,7.5,12.7,63,0.00,OVC,,0.00,796.0,WeatherDisplay:10.37,2013-09-08 19:39:00,
2013-09-08 12:44:00,72.6,59.7,29.83,SSW,213,8.1,11.5,64,0.00,OVC,,0.00,571.0,WeatherDisplay:10.37,2013-09-08 19:44:00,
2013-09-08 12:49:00,72.6,59.7,29.82,SSW,213,5.3,13.8,64,0.00,OVC,,0.00,345.0,WeatherDisplay:10.37,2013-09-08 19:49:00,
2013-09-08 12:54:00,72.9,59.1,29.83,SW,221,2.9,5.8,62,0.00,OVC,,0.00,800.0,WeatherDisplay:10.37,2013-09-08 19:54:00,
2013-09-08 13:00:00,73.4,59.2,29.82,WSW,245,3.0,7.0,61,0.00,OVC,,0.00,796.0,WeatherDisplay:10.37,2013-09-08 20:00:00,
2013-09-08 13:05:00,73.7,58.9,29.82,WSW,247,4.1,6.9,60,0.00,OVC,,0.00,800.0,WeatherDisplay:10.37,2013-09-08 20:05:00,
2013-09-08 13:10:00,73.6,58.9,29.82,SW,232,3.5,5.8,60,0.00,OVC,,0.00,796.0,WeatherDisplay:10.37,2013-09-08 20:10:00,
2013-09-08 13:15:00,73.8,58.6,29.82,WSW,249,4.4,5.8,59,0.00,OVC,,0.00,798.0,WeatherDisplay:10.37,2013-09-08 20:15:00,
2013-09-08 13:20:00,74.1,58.9,29.81,South,188,1.3,5.8,59,0.00,OVC,,0.00,795.0,WeatherDisplay:10.37,2013-09-08 20:20:00,
2013-09-08 13:25:00,74.8,59.5,29.81,SW,230,6.4,11.5,59,0.00,OVC,,0.00,795.0,WeatherDisplay:10.37,2013-09-08 20:25:00,
2013-09-08 13:30:00,75.5,59.2,29.81,SSW,206,3.3,8.1,57,0.00,OVC,,0.00,793.0,WeatherDisplay:10.37,2013-09-08 20:30:00,
2013-09-08 13:35:00,75.5,60.2,29.81,South,177,10.0,13.8,59,0.00,OVC,,0.00,789.0,WeatherDisplay:10.37,2013-09-08 20:35:00,
2013-09-08 13:40:00,74.8,60.0,29.81,SSW,202,8.0,14.0,60,0.00,OVC,,0.00,786.0,WeatherDisplay:10.37,2013-09-08 20:40:00,
2013-09-08 13:45:00,74.7,59.9,29.81,South,184,6.2,10.4,60,0.00,OVC,,0.00,782.0,WeatherDisplay:10.37,2013-09-08 20:45:00,
2013-09-08 13:50:00,75.0,59.7,29.80,SSW,197,8.1,10.0,59,0.00,OVC,,0.00,779.0,WeatherDisplay:10.37,2013-09-08 20:50:00,
2013-09-08 13:55:00,75.4,59.6,29.80,SW,218,3.4,7.0,58,0.00,OVC,,0.00,775.0,WeatherDisplay:10.37,2013-09-08 20:55:00,
2013-09-08 14:00:00,75.8,59.9,29.80,SW,228,2.0,10.0,58,0.00,OVC,,0.00,768.0,WeatherDisplay:10.37,2013-09-08 21:00:00,
2013-09-08 14:05:00,76.5,60.1,29.80,South,174,5.1,8.1,57,0.00,OVC,,0.00,765.0,WeatherDisplay:10.37,2013-09-08 21:05:00,
2013-09-08 14:10:00,76.4,60.0,29.80,SW,236,6.1,11.0,57,0.00,OVC,,0.00,761.0,WeatherDisplay:10.37,2013-09-08 21:10:00,
2013-09-08 14:15:00,76.0,59.7,29.80,West,259,4.2,10.4,57,0.00,OVC,,0.00,752.0,WeatherDisplay:10.37,2013-09-08 21:15:00,
2013-09-08 14:20:00,75.5,59.7,29.80,WSW,237,8.0,13.0,58,0.00,OVC,,0.00,348.0,WeatherDisplay:10.37,2013-09-08 21:20:00,
2013-09-08 14:25:00,75.2,59.9,29.80,WSW,242,8.2,11.5,59,0.00,OVC,,0.00,360.0,WeatherDisplay:10.37,2013-09-08 21:25:00,
2013-09-08 14:30:00,74.2,59.4,29.80,WSW,243,9.4,15.0,60,0.00,OVC,,0.00,733.0,WeatherDisplay:10.37,2013-09-08 21:30:00,
2013-09-08 14:35:00,73.2,58.9,29.80,West,263,10.2,16.1,61,0.00,OVC,,0.00,726.0,WeatherDisplay:10.37,2013-09-08 21:35:00,
2013-09-08 14:40:00,72.7,59.4,29.79,SW,229,5.1,9.2,63,0.00,OVC,,0.00,719.0,WeatherDisplay:10.37,2013-09-08 21:40:00,
2013-09-08 14:45:00,72.8,59.0,29.79,SW,217,10.7,19.6,62,0.00,OVC,,0.00,710.0,WeatherDisplay:10.37,2013-09-08 21:45:00,
2013-09-08 14:50:00,72.5,59.2,29.79,SW,231,12.4,18.4,63,0.00,OVC,,0.00,703.0,WeatherDisplay:10.37,2013-09-08 21:50:00,
2013-09-08 14:55:00,71.9,59.1,29.79,SW,225,12.6,16.1,64,0.00,OVC,,0.00,694.0,WeatherDisplay:10.37,2013-09-08 21:55:00,
2013-09-08 15:00:00,71.6,59.2,29.78,WSW,246,7.1,11.5,65,0.00,OVC,,0.00,686.0,WeatherDisplay:10.37,2013-09-08 22:00:00,
2013-09-08 15:05:00,71.9,59.5,29.78,SW,217,7.6,12.7,65,0.00,OVC,,0.00,673.0,WeatherDisplay:10.37,2013-09-08 22:05:00,
2013-09-08 15:10:00,72.2,58.9,29.78,SSW,207,8.4,12.7,63,0.00,OVC,,0.00,666.0,WeatherDisplay:10.37,2013-09-08 22:10:00,
2013-09-08 15:15:00,72.4,59.1,29.78,SW,215,8.9,12.7,63,0.00,OVC,,0.00,656.0,WeatherDisplay:10.37,2013-09-08 22:15:00,
2013-09-08 15:20:00,72.6,58.8,29.78,WSW,239,6.9,10.4,62,0.00,OVC,,0.00,643.0,WeatherDisplay:10.37,2013-09-08 22:20:00,
2013-09-08 15:25:00,72.8,59.0,29.77,WSW,238,3.8,8.0,62,0.00,OVC,,0.00,635.0,WeatherDisplay:10.37,2013-09-08 22:25:00,
2013-09-08 15:30:00,73.2,58.9,29.77,SW,228,6.8,10.4,61,0.00,OVC,,0.00,624.0,WeatherDisplay:10.37,2013-09-08 22:30:00,
2013-09-08 15:35:00,73.5,59.2,29.77,SSW,208,8.0,11.5,61,0.00,OVC,,0.00,613.0,WeatherDisplay:10.37,2013-09-08 22:35:00,
2013-09-08 15:40:00,73.9,59.1,29.77,WSW,247,7.0,9.2,60,0.00,OVC,,0.00,603.0,WeatherDisplay:10.37,2013-09-08 22:40:00,
2013-09-08 15:45:00,74.1,59.3,29.76,SW,235,6.2,8.1,60,0.00,OVC,,0.00,587.0,WeatherDisplay:10.37,2013-09-08 22:45:00,
2013-09-08 15:50:00,74.2,58.9,29.76,SW,216,7.2,11.5,59,0.00,OVC,,0.00,578.0,WeatherDisplay:10.37,2013-09-08 22:50:00,
2013-09-08 15:55:00,74.4,58.7,29.76,WSW,242,4.8,6.9,58,0.00,OVC,,0.00,564.0,WeatherDisplay:10.37,2013-09-08 22:55:00,
2013-09-08 16:00:00,74.8,58.5,29.76,SW,231,6.4,10.4,57,0.00,OVC,,0.00,555.0,WeatherDisplay:10.37,2013-09-08 23:00:00,
2013-09-08 16:05:00,74.9,58.6,29.76,WSW,251,6.7,12.7,57,0.00,OVC,,0.00,541.0,WeatherDisplay:10.37,2013-09-08 23:05:00,
2013-09-08 16:10:00,74.8,58.5,29.76,South,179,7.2,12.7,57,0.00,OVC,,0.00,527.0,WeatherDisplay:10.37,2013-09-08 23:10:00,
2013-09-08 16:15:00,74.9,58.1,29.75,SW,230,8.2,9.2,56,0.00,OVC,,0.00,515.0,WeatherDisplay:10.37,2013-09-08 23:15:00,
2013-09-08 16:21:00,75.0,58.2,29.75,SW,217,6.9,10.0,56,0.00,OVC,,0.00,503.0,WeatherDisplay:10.37,2013-09-08 23:21:00,
2013-09-08 16:26:00,75.1,57.3,29.76,WSW,258,10.6,15.0,54,0.00,OVC,,0.00,490.0,WeatherDisplay:10.37,2013-09-08 23:26:00,
2013-09-08 16:31:00,74.7,57.5,29.75,SW,231,7.9,11.5,55,0.00,OVC,,0.00,475.0,WeatherDisplay:10.37,2013-09-08 23:31:00,
2013-09-08 16:36:00,74.5,57.8,29.75,SW,223,5.8,6.9,56,0.00,OVC,,0.00,462.0,WeatherDisplay:10.37,2013-09-08 23:36:00,
2013-09-08 16:41:00,74.2,57.5,29.75,SW,235,9.3,13.8,56,0.00,OVC,,0.00,448.0,WeatherDisplay:10.37,2013-09-08 23:41:00,
2013-09-08 16:46:00,73.8,58.1,29.75,SW,215,7.0,11.5,58,0.00,OVC,,0.00,436.0,WeatherDisplay:10.37,2013-09-08 23:46:00,
2013-09-08 16:51:00,73.0,57.3,29.75,SW,229,6.8,11.5,58,0.00,OVC,,0.00,418.0,WeatherDisplay:10.37,2013-09-08 23:51:00,
2013-09-08 16:56:00,72.1,57.9,29.75,WSW,239,8.2,12.7,61,0.00,OVC,,0.00,406.0,WeatherDisplay:10.37,2013-09-08 23:56:00,
2013-09-08 17:01:00,71.4,57.7,29.75,SW,235,8.5,13.8,62,0.00,OVC,,0.00,387.0,WeatherDisplay:10.37,2013-09-09 00:01:00,
2013-09-08 17:06:00,70.7,57.5,29.75,SW,223,8.5,13.8,63,0.00,OVC,,0.00,371.0,WeatherDisplay:10.37,2013-09-09 00:06:00,
2013-09-08 17:11:00,70.2,57.4,29.75,SSW,193,8.2,14.0,64,0.00,OVC,,0.00,359.0,WeatherDisplay:10.37,2013-09-09 00:11:00,
2013-09-08 17:16:00,69.7,57.8,29.75,SW,227,11.6,16.1,66,0.00,OVC,,0.00,343.0,WeatherDisplay:10.37,2013-09-09 00:16:00,
2013-09-08 17:21:00,69.0,57.6,29.75,WSW,237,9.4,15.0,67,0.00,OVC,,0.00,329.0,WeatherDisplay:10.37,2013-09-09 00:21:00,
2013-09-08 17:26:00,68.7,57.7,29.75,SW,236,8.7,13.8,68,0.00,OVC,,0.00,311.0,WeatherDisplay:10.37,2013-09-09 00:26:00,
2013-09-08 17:31:00,68.2,57.6,29.75,SW,235,7.1,11.5,69,0.00,OVC,,0.00,295.0,WeatherDisplay:10.37,2013-09-09 00:31:00,
2013-09-08 17:36:00,67.5,57.0,29.75,SSW,200,8.6,18.4,69,0.00,OVC,,0.00,283.0,WeatherDisplay:10.37,2013-09-09 00:36:00,
2013-09-08 17:41:00,66.9,56.8,29.75,SW,216,10.1,15.0,70,0.00,OVC,,0.00,267.0,WeatherDisplay:10.37,2013-09-09 00:41:00,
2013-09-08 17:46:00,66.6,57.3,29.75,WSW,238,5.7,11.5,72,0.00,OVC,,0.00,251.0,WeatherDisplay:10.37,2013-09-09 00:46:00,
2013-09-08 17:51:00,66.5,56.8,29.75,SSW,203,7.0,17.3,71,0.00,OVC,,0.00,236.0,WeatherDisplay:10.37,2013-09-09 00:51:00,
2013-09-08 17:56:00,66.3,57.0,29.75,SSW,211,9.1,11.5,72,0.00,OVC,,0.00,220.0,WeatherDisplay:10.37,2013-09-09 00:56:00,
2013-09-08 18:01:00,66.0,56.7,29.75,SSW,202,9.5,11.5,72,0.00,OVC,,0.00,206.0,WeatherDisplay:10.37,2013-09-09 01:01:00,
2013-09-08 18:06:00,65.6,56.7,29.75,SW,224,7.0,10.4,73,0.00,OVC,,0.00,193.0,WeatherDisplay:10.37,2013-09-09 01:06:00,
2013-09-08 18:11:00,65.4,56.5,29.75,SW,216,7.1,13.8,73,0.00,OVC,,0.00,178.0,WeatherDisplay:10.37,2013-09-09 01:11:00,
2013-09-08 18:16:00,65.2,56.7,29.75,SSW,210,8.0,11.5,74,0.00,OVC,,0.00,165.0,WeatherDisplay:10.37,2013-09-09 01:16:00,
2013-09-08 18:21:00,65.0,56.5,29.74,SW,231,8.4,12.0,74,0.00,OVC,,0.00,151.0,WeatherDisplay:10.37,2013-09-09 01:21:00,
2013-09-08 18:26:00,64.7,55.8,29.74,SW,220,5.4,10.0,73,0.00,OVC,,0.00,139.0,WeatherDisplay:10.37,2013-09-09 01:26:00,
2013-09-08 18:31:00,64.3,55.8,29.74,SW,232,8.5,11.5,74,0.00,OVC,,0.00,125.0,WeatherDisplay:10.37,2013-09-09 01:31:00,
2013-09-08 18:37:00,63.9,55.8,29.74,SW,224,5.5,10.4,75,0.00,OVC,,0.00,105.0,WeatherDisplay:10.37,2013-09-09 01:37:00,
2013-09-08 18:42:00,63.8,55.7,29.74,SW,229,7.5,11.5,75,0.00,OVC,,0.00,90.0,WeatherDisplay:10.37,2013-09-09 01:42:00,
2013-09-08 18:47:00,63.7,56.0,29.74,SW,222,8.4,11.5,76,0.00,OVC,,0.00,74.0,WeatherDisplay:10.37,2013-09-09 01:47:00,
2013-09-08 18:52:00,63.6,55.5,29.74,SW,235,6.5,11.5,75,0.00,OVC,,0.00,49.0,WeatherDisplay:10.37,2013-09-09 01:52:00,
2013-09-08 18:57:00,63.6,55.5,29.74,WSW,243,6.1,10.4,75,0.00,OVC,,0.00,46.0,WeatherDisplay:10.37,2013-09-09 01:57:00,
2013-09-08 19:02:00,63.6,55.5,29.74,SW,216,4.5,10.0,75,0.00,OVC,,0.00,33.0,WeatherDisplay:10.37,2013-09-09 02:02:00,
2013-09-08 19:07:00,63.4,55.3,29.74,SW,221,3.6,5.8,75,0.00,OVC,,0.00,14.0,WeatherDisplay:10.37,2013-09-09 02:07:00,
2013-09-08 19:12:00,63.1,55.0,29.74,SSW,212,4.8,6.9,75,0.00,OVC,,0.00,12.0,WeatherDisplay:10.37,2013-09-09 02:12:00,
2013-09-08 19:17:00,62.7,54.7,29.74,WSW,239,3.9,4.6,75,0.00,OVC,,0.00,9.0,WeatherDisplay:10.37,2013-09-09 02:17:00,
2013-09-08 19:22:00,62.5,54.8,29.74,SW,217,6.2,10.4,76,0.00,OVC,,0.00,7.0,WeatherDisplay:10.37,2013-09-09 02:22:00,
2013-09-08 19:27:00,62.2,54.9,29.74,SW,234,3.9,10.4,77,0.00,OVC,,0.00,5.0,WeatherDisplay:10.37,2013-09-09 02:27:00,
2013-09-08 19:33:00,62.0,54.7,29.74,SW,234,5.6,11.5,77,0.00,OVC,,0.00,0.0,WeatherDisplay:10.37,2013-09-09 02:33:00,
2013-09-08 19:38:00,61.9,55.0,29.74,SSW,212,1.9,6.9,78,0.00,OVC,,0.00,0.0,WeatherDisplay:10.37,2013-09-09 02:38:00,
2013-09-08 19:43:00,61.8,54.9,29.74,SSW,208,7.4,10.4,78,0.00,OVC,,0.00,0.0,WeatherDisplay:10.37,2013-09-09 02:43:00,
2013-09-08 19:48:00,61.4,54.5,29.75,SSW,205,4.2,9.2,78,0.00,OVC,,0.00,0.0,WeatherDisplay:10.37,2013-09-09 02:48:00,
2013-09-08 19:53:00,61.2,54.6,29.75,SSW,196,3.1,5.8,79,0.00,OVC,,0.00,0.0,WeatherDisplay:10.37,2013-09-09 02:53:00,
2013-09-08 19:58:00,60.9,54.7,29.75,SSW,212,4.8,9.2,80,0.00,OVC,,0.00,0.0,WeatherDisplay:10.37,2013-09-09 02:58:00,
2013-09-08 20:03:00,60.5,54.3,29.75,SW,227,2.6,4.6,80,0.00,OVC,,0.00,0.0,WeatherDisplay:10.37,2013-09-09 03:03:00,
2013-09-08 20:08:00,60.4,54.5,29.75,SW,229,2.2,4.6,81,0.00,OVC,,0.00,0.0,WeatherDisplay:10.37,2013-09-09 03:08:00,
2013-09-08 20:13:00,60.4,54.5,29.75,SSW,210,0.0,0.0,81,0.00,OVC,,0.00,0.0,WeatherDisplay:10.37,2013-09-09 03:13:00,
2013-09-08 20:18:00,60.3,54.4,29.75,SW,233,0.2,2.3,81,0.00,OVC,,0.00,0.0,WeatherDisplay:10.37,2013-09-09 03:18:00,
2013-09-08 20:23:00,60.2,54.3,29.75,SW,233,0.7,2.3,81,0.00,OVC,,0.00,0.0,WeatherDisplay:10.37,2013-09-09 03:23:00,
2013-09-08 20:28:00,60.2,54.7,29.75,SW,232,0.1,0.0,82,0.00,OVC,,0.00,0.0,WeatherDisplay:10.37,2013-09-09 03:28:00,
2013-09-08 20:33:00,60.1,54.6,29.75,SW,233,0.6,2.3,82,0.00,OVC,,0.00,0.0,WeatherDisplay:10.37,2013-09-09 03:33:00,
2013-09-08 20:38:00,60.2,54.7,29.75,SW,233,1.5,3.5,82,0.00,OVC,,0.00,0.0,WeatherDisplay:10.37,2013-09-09 03:38:00,
2013-09-08 20:43:00,60.1,54.6,29.75,SSW,209,1.8,3.5,82,0.00,OVC,,0.00,0.0,WeatherDisplay:10.37,2013-09-09 03:43:00,
2013-09-08 20:48:00,60.0,54.8,29.75,SSE,148,2.5,3.5,83,0.00,OVC,,0.00,0.0,WeatherDisplay:10.37,2013-09-09 03:48:00,
2013-09-08 20:53:00,59.9,54.7,29.76,SSE,147,1.5,3.5,83,0.00,OVC,,0.00,0.0,WeatherDisplay:10.37,2013-09-09 03:53:00,
2013-09-08 20:58:00,59.8,55.0,29.76,East,81,1.5,3.5,84,0.00,OVC,,0.00,0.0,WeatherDisplay:10.37,2013-09-09 03:58:00,
2013-09-08 21:01:00,59.7,54.9,29.76,East,81,0.0,0.0,84,0.00,OVC,,0.00,0.0,WeatherDisplay:10.37,2013-09-09 04:01:00,
2013-09-08 21:02:00,59.6,54.8,29.76,East,81,0.0,0.0,84,0.00,OVC,,0.00,0.0,WeatherDisplay:10.37,2013-09-09 04:02:00,
2013-09-08 21:03:00,59.6,54.8,29.76,East,79,0.0,0.0,84,0.00,OVC,,0.00,0.0,WeatherDisplay:10.37,2013-09-09 04:03:00,
2013-09-08 21:08:00,59.4,54.6,29.76,East,82,0.8,3.5,84,0.00,OVC,,0.00,0.0,WeatherDisplay:10.37,2013-09-09 04:08:00,
2013-09-08 21:13:00,59.1,54.6,29.76,East,82,0.5,3.5,85,0.00,OVC,,0.00,0.0,WeatherDisplay:10.37,2013-09-09 04:13:00,
2013-09-08 21:18:00,58.9,54.4,29.77,East,82,0.0,0.0,85,0.00,OVC,,0.00,0.0,WeatherDisplay:10.37,2013-09-09 04:18:00,
2013-09-08 21:23:00,58.7,54.5,29.77,East,82,0.0,0.0,86,0.00,OVC,,0.00,0.0,WeatherDisplay:10.37,2013-09-09 04:23:00,
2013-09-08 21:28:00,58.5,54.3,29.77,East,82,0.0,0.0,86,0.00,OVC,,0.00,0.0,WeatherDisplay:10.37,2013-09-09 04:28:00,
2013-09-08 21:33:00,58.5,54.6,29.77,East,82,0.0,0.0,87,0.00,OVC,,0.00,0.0,WeatherDisplay:10.37,2013-09-09 04:33:00,
2013-09-08 21:38:00,58.5,54.6,29.77,East,82,0.0,0.0,87,0.00,OVC,,0.00,0.0,WeatherDisplay:10.37,2013-09-09 04:38:00,
2013-09-08 21:43:00,58.6,54.7,29.77,East,82,0.0,0.0,87,0.00,OVC,,0.00,0.0,WeatherDisplay:10.37,2013-09-09 04:43:00,
2013-09-08 21:48:00,58.5,54.6,29.77,East,85,0.0,0.0,87,0.00,OVC,,0.00,0.0,WeatherDisplay:10.37,2013-09-09 04:48:00,
2013-09-08 21:53:00,58.5,54.6,29.77,SE,144,0.0,0.0,87,0.00,OVC,,0.00,0.0,WeatherDisplay:10.37,2013-09-09 04:53:00,
2013-09-08 21:58:00,58.5,54.3,29.77,SSW,194,4.2,5.8,86,0.00,OVC,,0.00,0.0,WeatherDisplay:10.37,2013-09-09 04:58:00,
2013-09-08 22:03:00,58.4,54.2,29.77,SSW,198,1.0,2.3,86,0.00,OVC,,0.00,0.0,WeatherDisplay:10.37,2013-09-09 05:03:00,
2013-09-08 22:08:00,58.4,54.5,29.77,SSW,198,0.0,1.2,87,0.00,OVC,,0.00,0.0,WeatherDisplay:10.37,2013-09-09 05:08:00,
2013-09-08 22:14:00,58.3,54.4,29.77,SW,217,3.0,5.8,87,0.00,OVC,,0.00,0.0,WeatherDisplay:10.37,2013-09-09 05:14:00,
2013-09-08 22:19:00,58.2,54.3,29.77,WSW,243,4.2,7.0,87,0.00,OVC,,0.00,0.0,WeatherDisplay:10.37,2013-09-09 05:19:00,
2013-09-08 22:24:00,58.0,54.2,29.77,SW,217,7.9,11.5,87,0.00,OVC,,0.00,0.0,WeatherDisplay:10.37,2013-09-09 05:24:00,
2013-09-08 22:29:00,57.8,54.0,29.77,SW,219,5.8,10.4,87,0.00,OVC,,0.00,0.0,WeatherDisplay:10.37,2013-09-09 05:29:00,
2013-09-08 22:34:00,57.7,53.9,29.77,SW,231,4.0,9.2,87,0.00,OVC,,0.00,0.0,WeatherDisplay:10.37,2013-09-09 05:34:00,
2013-09-08 22:39:00,57.7,53.9,29.77,SSW,209,5.2,6.9,87,0.00,OVC,,0.00,0.0,WeatherDisplay:10.37,2013-09-09 05:39:00,
2013-09-08 22:44:00,57.7,53.9,29.77,SW,223,2.3,4.6,87,0.00,OVC,,0.00,0.0,WeatherDisplay:10.37,2013-09-09 05:44:00,
2013-09-08 22:49:00,57.7,54.2,29.78,SW,225,3.5,4.6,88,0.00,OVC,,0.00,0.0,WeatherDisplay:10.37,2013-09-09 05:49:00,
2013-09-08 22:54:00,57.8,54.3,29.78,SW,225,4.1,4.6,88,0.00,OVC,,0.00,0.0,WeatherDisplay:10.37,2013-09-09 05:54:00,
2013-09-08 22:59:00,57.8,54.0,29.78,SW,233,4.3,5.8,87,0.00,OVC,,0.00,0.0,WeatherDisplay:10.37,2013-09-09 05:59:00,
2013-09-08 23:04:00,57.8,54.0,29.78,SW,234,2.6,3.5,87,0.00,OVC,,0.00,0.0,WeatherDisplay:10.37,2013-09-09 06:04:00,
2013-09-08 23:09:00,57.8,54.0,29.78,SW,234,1.2,3.5,87,0.00,OVC,,0.00,0.0,WeatherDisplay:10.37,2013-09-09 06:09:00,
2013-09-08 23:14:00,57.8,54.0,29.78,South,180,2.0,3.5,87,0.00,OVC,,0.00,0.0,WeatherDisplay:10.37,2013-09-09 06:14:00,
2013-09-08 23:19:00,57.6,53.8,29.78,South,180,2.7,4.0,87,0.00,OVC,,0.00,0.0,WeatherDisplay:10.37,2013-09-09 06:19:00,
2013-09-08 23:24:00,57.5,53.7,29.78,South,180,0.3,3.5,87,0.00,OVC,,0.00,0.0,WeatherDisplay:10.37,2013-09-09 06:24:00,
2013-09-08 23:29:00,57.4,53.9,29.78,South,179,0.3,3.5,88,0.00,OVC,,0.00,0.0,WeatherDisplay:10.37,2013-09-09 06:29:00,
2013-09-08 23:34:00,57.5,54.0,29.78,SW,221,4.0,6.9,88,0.00,OVC,,0.00,0.0,WeatherDisplay:10.37,2013-09-09 06:34:00,
2013-09-08 23:39:00,57.6,54.1,29.78,SW,230,1.1,4.6,88,0.00,OVC,,0.00,0.0,WeatherDisplay:10.37,2013-09-09 06:39:00,
2013-09-08 23:44:00,57.6,54.1,29.78,SW,229,1.7,3.5,88,0.00,OVC,,0.00,0.0,WeatherDisplay:10.37,2013-09-09 06:44:00,
2013-09-08 23:49:00,57.6,54.1,29.78,SW,229,1.9,3.5,88,0.00,OVC,,0.00,0.0,WeatherDisplay:10.37,2013-09-09 06:49:00,
2013-09-08 23:54:00,57.6,54.1,29.78,SW,230,2.2,3.5,88,0.00,OVC,,0.00,0.0,WeatherDisplay:10.37,2013-09-09 06:54:00,
2013-09-08 23:59:00,57.5,54.0,29.78,SSW,212,2.0,5.0,88,0.00,OVC,,0.00,0.0,WeatherDisplay:10.37,2013-09-09 06:59:00,